Location: Lugrin
(46.4033°N, 6.6674°E)
Time: 06:08:09
(UTC+00:00)

Tsikada Rocket - Pass Details

Date: 17 January 2021
Orbit: 958 x 1009 km, 82.9° (Epoch: 06 March)

Event Time Altitude Azimuth Distance (km) Brightness Sun altitude
Exits shadow 05:37:34 19° 256° (WSW) 2,103 5.2 -15.8°
Drops below altitude 10° 05:40:21 10° 231° (SW) 2,686 6.0 -15.3°
Sets 05:43:25 0° 217° (SW) 3,627 6.8 -14.8°
